{"data":{"norad_id":68043,"intl_designator":"2026-041D","name":"STARLINK-36902","alt_names":[],"object_type":"PAYLOAD","status":"ACTIVE","operator":null,"country":"US","launch_date":"2026-03-02","launch_site_code":"AFETR","launch_vehicle":null,"mission":null,"orbit_class":"UNKNOWN","rcs_meters":null,"size_class":null,"mass_kg":null,"dimensions":null,"purposes":["comms"],"wikipedia_slug":null,"has_3d_model":false,"image_url":null,"decayed_at":null,"tle_current":{"epoch":"2026-05-25T03:37:32.707200Z","epoch_age_seconds":52188,"freshness":"FRESH","line1":"1 68043U 26041D   26145.15107300  .00029989  00000+0  10204-2 0  9994","line2":"2 68043  53.1596  54.8044 0001208  80.9538 279.1599 15.30206518 13097","mean_motion":15.30206518,"eccentricity":0.0001208,"inclination_deg":53.1596,"raan_deg":54.8044,"arg_perigee_deg":80.9538,"mean_anomaly_deg":279.1599,"bstar":0.0010204,"rev_number":1309,"period_min":94.104944859475,"perigee_km":474.36772533625,"apogee_km":476.02349049432,"semimajor_km":6853.3326079153,"source":"CELESTRAK","updated_at":"2026-05-25T13:38:21.810577Z"}}}